User: anonymous   Login
Location: Axtheid
(49.6213°N, 11.8205°E)
Time: 20:12:09
(UTC+00:00)
Language:

Cosmos 1844 - Orbit

View from above orbital plane
View from above orbital plane
View from above satellite
View from above satellite

Ground track
Ground track

The orbit data is extracted from the following two-line orbital elements,

1 17973U 87041A   21126.48743752  .00000352  00000-0  20911-3 0  9995
2 17973  70.8975 162.1877 0030395 159.9288 200.3037 14.14119920753786
Epoch (UTC): 06 May 2021 11:41:54
Eccentricity: 0.0030395
inclination: 70.8975°
perigee height: 823 km
apogee height: 867 km
right ascension of ascending node: 162.1877°
argument of perigee: 159.9288°
revolutions per day: 14.14119920
mean anomaly at epoch: 200.3037°
orbit number at epoch: 75378

The dashed part of the orbit path shows where the satellite is in the earth's shadow,  

DLR